CZ-6A DEB, 54968

Orbit data source: Space-Track

CZ-6A DEB, 54968 is space debris in SSO originally from a launch on Fri, 11 Nov 2022 UTC launched from the Taiyaun Space Center, China (TSC). Debris objects in space refer to the collection of defunct objects orbiting the Earth. Examples of debris include non-operational satellites, rocket bodies, and fragments generated from explosions, collisions, or faulty payload assembly.

Loading next visibility...
Identifier
54968, 2022-151TH
Orbit
SSO
Country
Flag of CNCN / PRC
Related business
Manufacturer
SAST
Mission
Spacecraft
Bus & Motor
Unknown
Mass
Unknown
Launch date (UTC)
2022-11-11 (4 years ago)
Launch vehicle
Unknown
Launch site
Taiyaun Space Center, China (TSC)
Object type
Payload
Rocket body
Debris
Shape & HBR
Unknown shape, 0.1 m
Radar Cross Section
Medium (>0.1 m² and <1 m²)

Expand to show TLE details & history
Last TLE update: 23 hours ago

TLE from 23 hours ago
0 CZ-6A DEB
1 54968U 22151TH  26206.18006714  .00017304  00000-0  25122-2 0  9995
2 54968  98.6312 276.6936 0069588 160.1229 200.2713 14.74395851195927
Epoch: 2026-07-25T04:19Z
TLE epoch observation values (Epoch: 2026-07-25T04:19:17.800Z)
Latitude
-0.0001°
Longitude
-91.0266°
Altitude
695.97 km
Speed
7.484 km/s
True Right ascension
18h 26m 46s
True Declination
0° 00' 00"
Sunlit
Object was in full shadow at epoch
Visualization orbit readout
Latitude
Unknown
Longitude
Unknown
Altitude
Unknown
Speed
Unknown
Apparent Right ascension
Unknown
Apparent Declination
Unknown
Sunlit
N/A
Visualization observer readout
Local Sidereal Time
16:11:00
Azimuth
Unknown
Elevation
Unknown
Doppler factor
Unknown
Orbital elements
Apogee altitude
693.019 km
Perigee altitude
595.285 km
Semi-major axis
7,022.289 km
Eccentricity
0.00696
Inclination
98.6312°
RAAN
276.6936°
Arg. of periapsis
160.1229°
True anomaly
199.99726°
Mean anomaly
200.2713°
Eccentric anomaly
200.13406°
Mean motion
3.68829 °/min
Orbital period
97.61 mins
BSTAR
0.0025122
Loading maneuver chart data...
Computing Atmospheric mass density...
Loading historical data...
Loading historical data...
Loading historical data...
Loading historical data...
Loading historical data...
Loading historical data...
Loading historical data...

Documentation

Showing up to 5 results
|